Regional Weather Roundup
Issued by NWS

Home | Current Version | Previous Version | Graphics & Text | Print | Product List | Glossary On
Versions: 1 2 3 4 5 6 7 8 9 10 11 12 13 14 15 16 17 18 19 20 21 22 23 24 25 26 27 28 29 30 31 32 33 34 35 36 37 38 39 40 41 42 43 44 45 46 47 48 49 50
000
ASUS45 KCYS 260410
RWRWY

WYOMING REGIONAL WEATHER ROUNDUP
NATIONAL WEATHER SERVICE CHEYENNE WY
1000 PM MDT TUE APR 25 2017

NOTE:  "FAIR" INDICATES FEW OR NO CLOUDS BELOW 12,000 FEET
WITH NO SIGNIFICANT WEATHER AND/OR OBSTRUCTIONS TO VISIBILITY.

WYZ001-260500-
YELLOWSTONE NATIONAL PARK

CITY           SKY/WX    TMP DP  RH WIND       PRES   REMARKS
LK YELLOWSTONE   N/A     28  27  96 CALM      29.88R
W YELLOWSTONE  NOT AVBL

$$
WYZ002>013-054>058-071-098>099-260500-
NORTHERN WYOMING

CITY           SKY/WX    TMP DP  RH WIND       PRES   REMARKS
JACKSON        MOCLDY    36  36 100 S5        29.88R WCI  32
CODY           FAIR      36  32  85 S6        29.86F WCI  31
GREYBULL       FAIR      38  29  70 W9        29.83R WCI  31
WORLAND        FAIR      40  35  83 N5        29.84R
SHERIDAN       CLOUDY    33  28  81 CALM      29.90R
BUFFALO        NOT AVBL
GILLETTE       CLOUDY    27  27 100 N6        29.90R WCI  20
HULETT         FLURRIES  27  25  93 CALM      29.91R
NEWCASTLE      CLOUDY    28  21  74 NW14G20   29.88R WCI  17

$$
WYZ014>020-022>026-101>103-260500-
CENTRAL WYOMING

CITY           SKY/WX    TMP DP  RH WIND       PRES   REMARKS
BIG PINEY      FAIR      33  29  85 N9        29.89R WCI  25
PINEDALE       FAIR      32  32 100 NW8       29.88R WCI  25
DUBOIS         CLOUDY    32  30  93 S7        29.86R WCI  26
LANDER         MOCLDY    34  27  75 SW5       29.84R WCI  30
RIVERTON       FAIR      37  31  78 S5        29.86R WCI  33
CASPER         CLOUDY    28  26  92 NW3       29.89R
DOUGLAS        CLOUDY    30  25  81 N10       29.89R WCI  21

$$
WYZ021-027>030-104>119-260500-
SOUTHERN WYOMING

CITY           SKY/WX    TMP DP  RH WIND       PRES   REMARKS
EVANSTON       CLOUDY    35  29  78 W13       29.94R WCI  26
KEMMERER         N/A     34  30  86 W13       29.91S WCI  25
FORT BRIDGER   FAIR      35  32  89 W13       29.94R WCI  26
ROCK SPRINGS   CLOUDY    34  29  82 W3        29.90R
DIXON            N/A     35  29  78 NW6       29.88R WCI  30
RAWLINS        CLOUDY    31  26  82 E3        29.87S
SARATOGA       CLOUDY    32  27  80 N6        29.88R WCI  26
LARAMIE        MOCLDY    27  22  81 N9        29.83R WCI  18
CHEYENNE       CLOUDY    28  22  78 N18       29.83R WCI  15
TORRINGTON     CLOUDY    32  27  81 NE7       29.86R WCI  26
PINE BLUFFS    CLOUDY    30  30 100 N18       29.86R WCI  18

$$



USA.gov is the U.S. government's official web portal to all federal, state and local government web resources and services.